Stations météo

réclame
Mon MeteoGroup
Lerwick, Grande-Bretagne (3005): Température de l'air & dewpoint: 13.03.2019 02:00:00 - 19.03.2019 02:00:00 (GMT)Lerwick, Grande-Bretagne (3005): Température de l'air -20cm & Température de l'air -100cm: 13.03.2019 02:00:00 - 19.03.2019 02:00:00 (GMT)Lerwick, Grande-Bretagne (3005): Vitesse du vent & gusts: 13.03.2019 02:00:00 - 19.03.2019 02:00:00 (GMT)Lerwick, Grande-Bretagne (3005): Direction du vent: 13.03.2019 02:00:00 - 19.03.2019 02:00:00 (GMT)Lerwick, Grande-Bretagne (3005): reduced air pressure: 13.03.2019 02:00:00 - 19.03.2019 02:00:00 (GMT)Lerwick, Grande-Bretagne (3005): visibility: 13.03.2019 02:00:00 - 19.03.2019 02:00:00 (GMT)Lerwick, Grande-Bretagne (3005): Ensoleillement: 13.03.2019 02:00:00 - 19.03.2019 02:00:00 (GMT)Lerwick, Grande-Bretagne (3005): Quantités de précipitations: 13.03.2019 02:00:00 - 19.03.2019 02:00:00 (GMT)
Date & Time tt [°C] td [°C] tt -20cm [°C] tt -100cm [°C] ff [km/h] ff [knt] fx [km/h] fx [knt] dd ppp [hPa] vv [km] sd [min] rr [mm]
19.03.2019 02:00:00 5,0 2,5 - - 26 14 - - S 1016,6 22 0 0,0
19.03.2019 01:00:00 4,1 1,9 - - 21 11 - - SSW 1017,3 25 0 0,0
19.03.2019 00:00:00 3,7 1,4 - - 21 11 - - SSW 1017,7 29 - 0,0
18.03.2019 23:00:00 2,9 0,8 - - 15 8 - - SSW 1018,0 27 0 0,0
18.03.2019 22:00:00 2,3 0,1 - - 13 7 - - SSW 1017,9 30 0 0,0
18.03.2019 21:00:00 1,9 -0,4 - - 11 6 - - SSW 1018,2 30 0 0,0
18.03.2019 20:00:00 1,9 -1,4 - - 8 4 - - SSW 1017,9 35 0 0,0
18.03.2019 19:00:00 1,9 -2,2 - - 8 4 - - S 1017,6 50 0 0,0
18.03.2019 18:00:00 3,4 -1,5 - - 8 4 - - SSW 1017,4 50 60 0,0
18.03.2019 17:00:00 5,3 -2,9 - - 13 7 - - SW 1016,9 45 60 0,0
18.03.2019 16:00:00 6,3 -3,6 - - 13 7 - - WSW 1016,4 35 60 0,0
18.03.2019 15:00:00 6,3 -3,2 - - 18 10 - - WSW 1015,8 23 60 0,0
18.03.2019 14:00:00 6,1 -3,9 - - 11 6 - - W 1015,4 27 60 0,0
18.03.2019 13:00:00 6,4 -3,9 - - 9 5 - - NNW 1014,8 40 60 0,0
18.03.2019 12:00:00 6,1 -4,4 - - 11 6 - - N 1014,5 40 60 0,0
18.03.2019 11:00:00 5,4 -4,2 - - 13 7 - - WNW 1014,0 35 54 0,0
18.03.2019 10:00:00 5,1 -4,2 - - 15 8 - - NW 1013,4 45 60 0,0
18.03.2019 09:00:00 4,4 -3,7 5,0 6,2 15 8 - - NW 1012,5 35 60 0,0
18.03.2019 08:00:00 3,4 -4,0 - - 15 8 - - NW 1011,7 29 42 0,0
18.03.2019 07:00:00 2,7 -3,4 - - 16 9 - - NW 1011,1 35 0 0,0
18.03.2019 06:00:00 2,7 -2,9 - - 18 10 - - NW 1010,2 50 0 0,0
18.03.2019 05:00:00 3,0 -3,3 - - 21 11 - - NW 1009,3 35 0 0,0
18.03.2019 04:00:00 2,8 -3,1 - - 18 10 - - NW 1008,7 45 0 0,0
18.03.2019 03:00:00 3,3 -3,7 - - 18 10 - - NW 1008,2 35 0 0,0
18.03.2019 02:00:00 3,1 -2,2 - - 26 14 - - NNW 1007,4 30 0 0,0
18.03.2019 01:00:00 3,0 -1,0 - - 28 15 48 26 NNW 1006,4 24 0 0,0
18.03.2019 00:00:00 2,5 -0,5 - - 28 15 50 27 NNW 1005,8 30 - 0,0
17.03.2019 23:00:00 2,9 -1,2 - - 29 16 57 31 NNW 1004,9 27 0 0,0
17.03.2019 22:00:00 3,5 -2,9 - - 39 21 55 30 NNW 1004,0 21 0 0,0
17.03.2019 21:00:00 3,4 -3,5 - - 42 23 70 38 NNW 1003,1 27 0 0,2
17.03.2019 20:00:00 3,5 -2,2 - - 37 20 65 35 N 1002,3 21 0 0,0
17.03.2019 19:00:00 2,7 -0,5 - - 44 24 67 36 N 1001,0 17 0 0,0
17.03.2019 18:00:00 3,9 -2,1 - - 41 22 63 34 N 999,5 14 0 0,2
17.03.2019 17:00:00 3,1 -0,1 - - 39 21 80 43 N 998,3 8 6 0,0
17.03.2019 16:00:00 5,0 -1,1 - - 42 23 81 44 N 996,3 16 6 0,2
17.03.2019 15:00:00 5,6 -1,1 - - 52 28 80 43 N 994,8 15 42 0,0
17.03.2019 14:00:00 4,8 0,2 - - 48 26 81 44 N 993,4 14 18 0,8
17.03.2019 13:00:00 2,6 1,3 - - 54 29 80 43 N 992,0 3,6 24 0,8
17.03.2019 12:00:00 4,9 0,0 - - 61 33 81 44 N 989,9 17 48 0,0
17.03.2019 11:00:00 4,5 -0,3 - - 50 27 68 37 N 988,9 24 36 0,0
17.03.2019 10:00:00 4,0 -0,8 - - 46 25 65 35 N 987,8 19 12 0,0
17.03.2019 09:00:00 4,6 -2,5 5,2 6,2 42 23 59 32 N 986,5 23 12 0,0
17.03.2019 08:00:00 3,9 -0,7 - - 31 17 48 26 N 985,6 17 12 0,0
17.03.2019 07:00:00 3,4 -1,0 - - 39 21 54 29 N 984,6 15 0 0,0
17.03.2019 06:00:00 4,1 0,1 - - 39 21 57 31 N 983,7 16 0 0,0
17.03.2019 05:00:00 4,1 0,7 - - 41 22 52 28 N 982,6 28 0 0,8
17.03.2019 04:00:00 2,4 1,6 - - 21 11 46 25 N 982,4 40 0 2,2
17.03.2019 03:00:00 2,7 1,5 - - 24 13 - - N 982,1 3,6 0 0,4
17.03.2019 02:00:00 2,4 1,6 - - 24 13 - - NNW 981,7 50 0 0,0
17.03.2019 01:00:00 2,2 1,3 - - 22 12 - - N 981,8 35 0 0,0
17.03.2019 00:00:00 2,2 1,2 - - 16 9 - - N 982,1 17 - 0,8
16.03.2019 23:00:00 2,5 1,9 - - 13 7 - - N 982,6 11 0 0,6
16.03.2019 22:00:00 2,8 1,7 - - 11 6 - - NNE 983,0 16 0 0,4
16.03.2019 21:00:00 2,6 1,5 - - 15 8 - - E 983,6 20 0 0,6
16.03.2019 20:00:00 2,4 1,7 - - 29 16 - - E 984,0 8 0 0,0
16.03.2019 19:00:00 3,8 1,1 - - 5 3 - - N 984,1 45 0 0,0
16.03.2019 18:00:00 4,1 1,6 - - 4 2 - - N 984,5 45 0 0,0
16.03.2019 17:00:00 4,7 1,9 - - 5 3 - - ESE 984,9 40 0 0,0
16.03.2019 16:00:00 5,1 1,8 - - 4 2 - - S 985,6 40 0 0,0
16.03.2019 15:00:00 5,3 1,0 - - 9 5 - - SSW 986,3 50 0 0,0
16.03.2019 14:00:00 4,5 1,6 - - 21 11 - - SSW 986,9 30 0 0,0
16.03.2019 13:00:00 5,7 2,6 - - 21 11 - - WSW 987,5 40 0 0,0
16.03.2019 12:00:00 6,1 2,3 - - 18 10 - - SW 987,8 30 30 0,0
16.03.2019 11:00:00 6,0 2,2 - - 15 8 - - SW 988,3 50 36 0,2
16.03.2019 10:00:00 6,4 2,1 - - 16 9 - - SW 988,5 45 36 0,0
16.03.2019 09:00:00 5,3 0,2 5,2 6,2 21 11 - - WSW 988,7 45 42 0,0
16.03.2019 08:00:00 3,7 1,1 - - 11 6 - - NW 989,1 45 0 0,0
16.03.2019 07:00:00 4,0 1,3 - - 16 9 - - WNW 989,5 45 0 0,0
16.03.2019 06:00:00 3,1 0,9 - - 13 7 - - WSW 989,4 30 0 0,0
16.03.2019 05:00:00 4,1 1,1 - - 24 13 - - WSW 989,2 50 0 0,2
16.03.2019 04:00:00 3,9 1,8 - - 31 17 - - W 989,4 4,9 0 0,6
16.03.2019 03:00:00 4,5 1,9 - - 29 16 - - WSW 989,4 20 0 0,0
16.03.2019 02:00:00 5,2 0,0 - - 29 16 - - W 989,3 30 0 0,0
16.03.2019 01:00:00 4,1 1,3 - - 26 14 55 30 W 989,3 50 0 0,2
16.03.2019 00:00:00 3,9 1,4 - - 18 10 - - W 989,2 30 - 0,2
15.03.2019 23:00:00 3,6 1,4 - - 24 13 - - WNW 988,4 50 0 0,0
15.03.2019 22:00:00 3,2 1,8 - - 18 10 - - W 987,7 35 0 0,0
15.03.2019 21:00:00 3,7 2,3 - - 34 18 50 27 WSW 987,1 30 0 0,2
15.03.2019 20:00:00 4,8 1,2 - - 24 13 - - W 986,7 23 0 0,0
15.03.2019 19:00:00 4,8 0,5 - - 31 17 52 28 W 986,1 27 0 0,0
15.03.2019 18:00:00 5,2 1,1 - - 31 17 - - W 985,1 30 12 0,0
15.03.2019 17:00:00 5,2 2,1 - - 24 13 48 26 WNW 984,3 45 24 0,0
15.03.2019 16:00:00 5,5 3,3 - - 34 18 52 28 W 983,2 30 0 0,2
15.03.2019 15:00:00 5,4 2,8 - - 28 15 48 26 WNW 982,4 45 18 0,2
15.03.2019 14:00:00 5,6 2,7 - - 31 17 50 27 W 981,6 24 24 0,0
15.03.2019 13:00:00 6,3 2,1 - - 35 19 52 28 W 981,2 29 42 0,0
15.03.2019 12:00:00 5,8 2,3 - - 37 20 52 28 W 980,6 35 18 0,4
15.03.2019 11:00:00 5,6 2,6 - - 34 18 50 27 W 980,5 2,7 30 0,2
15.03.2019 10:00:00 4,7 2,4 - - 34 18 54 29 W 980,4 30 36 0,0
15.03.2019 09:00:00 5,3 3,5 5,2 6,2 31 17 - - WSW 980,1 35 18 0,2
15.03.2019 08:00:00 4,1 2,9 - - 24 13 - - WSW 980,2 30 0 0,0
15.03.2019 07:00:00 3,0 2,0 - - 18 10 48 26 W 980,6 40 0 1,0
15.03.2019 06:00:00 3,7 2,2 - - 24 13 - - WSW 980,8 24 0 0,2
15.03.2019 05:00:00 2,9 2,0 - - 31 17 52 28 WSW 981,4 9 0 1,6
15.03.2019 04:00:00 4,5 2,9 - - 22 12 - - WSW 981,9 17 0 0,4
15.03.2019 03:00:00 4,2 2,2 - - 26 14 48 26 WSW 982,9 8 0 0,2
15.03.2019 02:00:00 5,2 3,5 - - 29 16 50 27 WSW 983,5 8 0 0,4
15.03.2019 01:00:00 5,2 3,2 - - 28 15 - - WSW 984,2 26 0 0,0
15.03.2019 00:00:00 4,9 3,0 - - 22 12 54 29 SW 985,2 23 - 0,2
14.03.2019 23:00:00 5,5 3,3 - - 28 15 - - SW 985,7 13 0 0,0
14.03.2019 22:00:00 4,9 3,4 - - 24 13 - - SW 986,5 17 0 0,0
14.03.2019 21:00:00 4,1 2,6 - - 16 9 - - SW 987,3 21 0 0,0
14.03.2019 20:00:00 4,2 2,0 - - 21 11 - - WSW 987,8 45 0 0,2
14.03.2019 19:00:00 3,5 2,0 - - 22 12 - - W 988,1 5 0 1,0
14.03.2019 18:00:00 5,3 2,3 - - 21 11 - - W 987,6 35 48 0,0
14.03.2019 17:00:00 5,8 1,5 - - 26 14 - - W 987,4 50 36 0,2
14.03.2019 16:00:00 5,5 4,2 - - 26 14 - - WSW 987,1 50 6 0,2
14.03.2019 15:00:00 5,3 4,4 - - 26 14 - - WSW 987,1 6 24 0,2
14.03.2019 14:00:00 6,9 3,7 - - 21 11 - - WSW 986,9 40 30 0,0
14.03.2019 13:00:00 5,9 3,1 - - 9 5 - - S 986,7 35 0 0,0
14.03.2019 12:00:00 5,2 1,9 - - 4 2 - - W 986,3 17 0 0,0
14.03.2019 11:00:00 5,9 1,0 - - 4 2 - - S 985,6 35 0 0,0
14.03.2019 10:00:00 5,4 1,6 - - 5 3 - - E 985,1 40 18 0,0
14.03.2019 09:00:00 4,6 2,3 5,2 6,2 5 3 - - ENE 984,5 50 0 0,0
14.03.2019 08:00:00 3,9 2,6 - - 13 7 - - ENE 983,7 26 0 0,0
14.03.2019 07:00:00 3,4 2,8 - - 8 4 - - NE 983,1 20 0 0,0
14.03.2019 06:00:00 3,7 2,7 - - 9 5 - - ESE 982,8 22 0 0,2
14.03.2019 05:00:00 3,6 2,5 - - 5 3 - - SSE 982,9 17 0 0,6
14.03.2019 04:00:00 3,7 2,7 - - 4 2 - - S 983,5 11 0 1,4
14.03.2019 03:00:00 3,5 2,4 - - 2 1 - - S 984,5 9 0 0,2
14.03.2019 02:00:00 3,2 1,9 - - 5 3 - - SE 985,6 25 0 0,0
14.03.2019 01:00:00 2,4 1,4 - - 5 3 - - S 986,6 18 0 0,0
14.03.2019 00:00:00 2,3 1,4 - - 4 2 - - S 987,9 22 - 0,0
13.03.2019 23:00:00 2,5 0,9 - - 2 1 - - SW 988,9 30 0 0,0
13.03.2019 22:00:00 3,4 1,0 - - 8 4 - - WNW 989,9 29 0 0,0
13.03.2019 21:00:00 3,6 1,2 - - 13 7 - - WNW 990,6 29 0 0,0
13.03.2019 20:00:00 3,8 1,3 - - 15 8 - - WNW 991,4 29 0 0,0
13.03.2019 19:00:00 4,0 2,4 - - 13 7 - - NNW 991,4 40 0 0,0
13.03.2019 18:00:00 4,3 2,2 - - 18 10 - - NW 991,3 50 12 0,0
13.03.2019 17:00:00 4,8 3,1 - - 21 11 - - NW 991,0 8 24 0,6
13.03.2019 16:00:00 5,1 2,2 - - 26 14 - - W 990,9 35 18 0,2
13.03.2019 15:00:00 6,5 2,4 - - 28 15 - - W 990,7 20 42 0,0
13.03.2019 14:00:00 7,5 2,3 - - 24 13 - - W 990,7 18 60 0,0
13.03.2019 13:00:00 6,5 2,7 - - 21 11 - - NW 991,0 22 42 0,0
13.03.2019 12:00:00 6,9 2,1 - - 18 10 - - W 990,4 27 60 0,0
13.03.2019 11:00:00 6,3 1,2 - - 22 12 - - WNW 989,6 45 36 0,0
13.03.2019 10:00:00 5,1 2,8 - - 21 11 - - WNW 989,1 45 36 0,0
13.03.2019 09:00:00 4,2 2,2 5,0 6,2 18 10 - - N 987,4 50 12 0,2
13.03.2019 08:00:00 3,7 2,8 - - 28 15 - - N 985,9 14 0 0,4
13.03.2019 07:00:00 4,5 2,4 - - 22 12 - - NNE 984,2 40 0 0,0
13.03.2019 06:00:00 4,7 2,8 - - 28 15 - - NE 982,1 27 0 0,2
13.03.2019 05:00:00 4,8 3,1 - - 21 11 - - NE 980,3 13 0 2,0
13.03.2019 04:00:00 4,6 3,2 - - 22 12 - - NE 978,6 11 0 2,6
13.03.2019 03:00:00 4,2 2,9 - - 22 12 - - NE 977,2 14 0 1,4
13.03.2019 02:00:00 4,5 2,8 - - 26 14 - - ENE 975,9 16 0 0,0

tt = Température de l'air
td = dewpoint
tt -20cm = Température de l'air -20cm
tt -100cm = Température de l'air -100cm
ff = Vitesse du vent
fx = gusts
dd = Direction du vent
ppp = reduced air pressure
vv = visibility
sd = Ensoleillement
rr = Quantités de précipitations

stations d'obs. à proximité